Tracking 18844 objects as of 21-Nov-2017
HD Live streaming from Space Station
objects crossing your sky now

FENGYUN 1C DEB

Track FENGYUN 1C DEB now!
10-day predictions


NORAD ID: 30883
Int'l Code: 1999-025AXV
Perigee: 774.1 km
Apogee: 940.8 km
Inclination: 98.4 °
Period: 101.9 minutes
Semi major axis: 7228 km
RCS: 0.0149 m2 (small)
Launch date: May 10, 1999
Source: People's Republic of China (PRC)
Launch site: Taiyaun Space Center, China (TSC)

Note: This is SATELLITE DEBRIS
aabbcc
Your satellite tracking list
Your tracking list is empty




NASA's NSSDC Master Catalog

Two Line Element Set (TLE):
1 30883U 99025AXV 17325.28877582  .00000092  00000-0  66768-4 0  9990
2 30883  98.3541 124.3758 0115287  25.7998  92.6892 14.12660189554185
Source of the keplerian elements: AFSPC